EW5448 Weather Reports


Display with metric or nautical units.
time (UTC)temp
F
wind
direction
speed
MPH
gust
MPH
rain 1hr
in
rain 24hr
in
rain mn
in
humidity
%
barometer
mb
20260503221536 96 178 12.0 20.0 0.00 0.00 0.00 12 989.1
20260503220034 96 158 7.0 18.0 0.00 0.00 0.00 13 989.3
20260503214532 96 150 13.0 25.0 0.00 0.00 0.00 12 989.5
20260503213030 96 136 11.0 22.0 0.00 0.00 0.00 12 989.8
20260503211529 96 214 11.0 21.0 0.00 0.00 0.00 13 990.1
20260503210027 96 214 11.0 27.0 0.00 0.00 0.00 13 990.4
20260503204529 96 101 11.0 24.0 0.00 0.00 0.00 14 990.3
20260503203026 95 196 7.0 16.0 0.00 0.00 0.00 17 990.4
20260503201523 94 113 9.0 20.0 0.00 0.00 0.00 17 990.7
20260503200021 95 140 10.0 19.0 0.00 0.00 0.00 16 991.0
20260503194518 94 135 12.0 22.0 0.00 0.00 0.00 16 991.3
20260503193034 94 155 13.0 28.0 0.00 0.00 0.00 15 991.7
20260503191514 94 145 9.0 20.0 0.00 0.00 0.00 16 992.0
20260503190011 94 153 8.0 16.0 0.00 0.00 0.00 17 992.2
20260503184507 92 336 1.0 5.0 0.00 0.00 0.00 16 992.6
20260503183004 92 153 4.0 9.0 0.00 0.00 0.00 16 993.0
20260503181629 90 134 3.0 6.0 0.00 0.00 0.00 17 993.2
20260503174555 87 269 0.0 6.0 0.00 0.00 0.00 16 993.8
20260503173057 87 253 2.0 5.0 0.00 0.00 0.00 16 993.8
20260503171555 86 126 0.0 2.0 0.00 0.00 0.00 14 994.0
20260503090110 68 150 0.0 0.0 0.00 0.00 0.00 26 993.7
20260503081551 70 236 0.0 1.0 0.00 0.00 0.00 24 993.9
20260503071547 73 270 0.0 0.0 0.00 0.00 0.00 21 994.0
20260503054542 78 247 0.0 2.0 0.00 0.00 0.00 14 993.9
20260503053038 79 65 1.0 2.0 0.00 0.00 0.00 13 993.8
20260503051537 79 76 1.0 2.0 0.00 0.00 0.00 13 993.8
20260503050037 79 76 1.0 2.0 0.00 0.00 0.00 14 993.8
20260503044541 78 107 0.0 1.0 0.00 0.00 0.00 15 993.8
20260503043037 80 140 0.0 2.0 0.00 0.00 0.00 13 993.8
20260503041536 80 317 0.0 1.0 0.00 0.00 0.00 14 993.5
20260503040038 83 83 0.0 1.0 0.00 0.00 0.00 14 993.4
20260503034535 85 96 1.0 2.0 0.00 0.00 0.00 12 993.2
20260503033042 85 90 1.0 2.0 0.00 0.00 0.00 12 993.0
20260503031534 86 91 0.0 1.0 0.00 0.00 0.00 12 993.0
20260503030033 87 91 0.0 2.0 0.00 0.00 0.00 13 992.8
20260503024533 88 223 0.0 1.0 0.00 0.00 0.00 11 992.7
20260503023031 88 223 0.0 0.0 0.00 0.00 0.00 11 992.5
20260503021531 91 223 0.0 1.0 0.00 0.00 0.00 10 992.4
20260503020030 93 223 0.0 4.0 0.00 0.00 0.00 9 992.6
20260503014529 95 227 0.0 4.0 0.00 0.00 0.00 9 992.6
20260503013038 95 161 0.0 5.0 0.00 0.00 0.00 9 992.7
20260503011533 95 155 2.0 7.0 0.00 0.00 0.00 9 992.7
20260503010026 95 201 1.0 7.0 0.00 0.00 0.00 10 992.8
20260503004525 94 144 1.0 6.0 0.00 0.00 0.00 9 992.8
20260503003024 94 236 4.0 7.0 0.00 0.00 0.00 9 993.1
20260503001522 94 205 0.0 7.0 0.00 0.00 0.00 9 993.0
20260503000021 94 277 2.0 6.0 0.00 0.00 0.00 9 993.1
20260502234520 94 267 5.0 8.0 0.00 0.00 0.00 9 993.1
20260502233020 94 230 2.0 9.0 0.00 0.00 0.00 9 993.3
20260502231519 94 267 6.0 11.0 0.00 0.00 0.00 9 993.4
20260502230022 93 241 6.0 12.0 0.00 0.00 0.00 9 993.4
20260502224513 93 259 1.0 9.0 0.00 0.00 0.00 10 993.6
20260502223010 93 225 8.0 12.0 0.00 0.00 0.00 9 993.8